Weather History for Fairbanks Eiels, AK

Change the Weather History Date:

Wednesday, February 6, 2013

  Actual Average Record
Temperature  
Mean Temperature 0 °F -  
Max Temperature 3 °F 8 °F 40 °F (1980)
Min Temperature -4 °F -10 °F -50 °F (1953)
Degree Days  
Heating Degree Days 66    
Moisture  
Dew Point -4 °F    
Average Humidity 82    
Maximum Humidity 85    
Minimum Humidity 78    
Precipitation  
Precipitation 0.03 in - - ()
Sea Level Pressure  
Sea Level Pressure 29.69 in    
Wind  
Wind Speed 0 mph (South)    
Max Wind Speed 5 mph    
Max Gust Speed -    
Visibility 6 miles    
Events Snow    
Averages and records for this station are not official NWS values.
T = Trace of Precipitation, MM = Missing Value Source: NWS Daily Summary

Daily Weather History Graph

Daily Weather History Graph

Search for Another Location

Airport:

Trip Planner

Search our weather history database for the weather conditions in past years. The results will help you decide how hot, cold, wet, or windy it might be!

Date:

Astronomy

Feb. 06, 2013 Rise Set
Actual Time 9:14 AM AKST 4:51 PM AKST
Civil Twilight 8:19 AM AKST 5:46 PM AKST
Nautical Twilight 7:20 AM AKST 6:45 PM AKST
Astronomical Twilight 6:24 AM AKST 7:42 PM AKST
Moon 7:04 AM AKST (2/6) 12:24 PM AKST (2/6)
Length of Visible Light 9h 27m
Length of Day
7h 36m
Waning Crescent, 15% of the Moon is Illuminated
Feb 6
Waning Crescent
Feb 9
New
Feb 17
First Quarter
Feb 25
Full
Mar 4
Last Quarter

Hourly Weather History & Observations

Time (AKST) Temp. Windchill Dew Point Humidity Pressure Visibility Wind Dir Wind Speed Gust Speed Precip Events Conditions
12:55 AM -0.8 °F - -5.1 °F 82% 29.65 in 10.0 mi Calm Calm - N/A   Overcast
1:55 AM 0.1 °F - -4.2 °F 82% 29.65 in 10.0 mi Calm Calm - N/A   Overcast
2:17 AM -0.4 °F - -4.0 °F 85% 29.65 in 10.0 mi Calm Calm - N/A   Overcast
2:40 AM -0.4 °F - -4.0 °F 85% 29.65 in 8.0 mi Calm Calm - N/A Snow Light Snow
2:55 AM 0.5 °F - -3.8 °F 82% 29.65 in 5.0 mi Calm Calm - 0.00 in Snow Light Snow
2:57 AM 1.4 °F - -4.0 °F 78% 29.65 in 5.0 mi Calm Calm - N/A Snow Light Snow
3:01 AM 1.4 °F - -4.0 °F 78% 29.65 in 4.0 mi Calm Calm - N/A Snow Light Snow
3:11 AM 1.4 °F - -4.0 °F 78% 29.65 in 4.0 mi Calm Calm - N/A Snow Light Snow
3:32 AM -0.4 °F - -4.0 °F 85% 29.65 in 4.0 mi Calm Calm - N/A Snow Light Snow
3:55 AM -0.2 °F - -4.5 °F 82% 29.65 in 6.0 mi Calm Calm - 0.00 in Snow Light Snow
4:02 AM -0.4 °F - -4.0 °F 85% 29.65 in 8.0 mi Calm Calm - N/A Snow Light Snow
4:11 AM -0.4 °F - -5.8 °F 78% 29.64 in 8.0 mi Calm Calm - N/A   Overcast
4:21 AM -2.2 °F - -5.8 °F 85% 29.65 in 7.0 mi Calm Calm - N/A   Overcast
4:36 AM -2.2 °F - -5.8 °F 85% 29.65 in 5.0 mi Calm Calm - N/A   Haze
4:55 AM -3.1 °F - -7.4 °F 82% 29.65 in 9.0 mi Calm Calm - 0.00 in   Overcast
5:22 AM -4.0 °F - -9.4 °F 78% 29.65 in 9.0 mi Calm Calm - N/A   Overcast
5:45 AM -4.0 °F - -7.6 °F 85% 29.65 in 10.0 mi Calm Calm - N/A   Overcast
5:55 AM -4.2 °F - -8.9 °F 80% 29.65 in 10.0 mi Calm Calm - N/A   Overcast
6:51 AM -2.2 °F - -5.8 °F 85% 29.65 in 8.0 mi Calm Calm - N/A Snow Light Snow
6:55 AM -2.2 °F - -6.7 °F 81% 29.65 in 6.0 mi Calm Calm - 0.00 in Snow Light Snow
7:14 AM -2.2 °F - -5.8 °F 85% 29.65 in 7.0 mi Calm Calm - N/A Snow Light Snow
7:55 AM -1.3 °F - -5.8 °F 81% 29.65 in 8.0 mi Calm Calm - 0.00 in Snow Light Snow
8:03 AM -0.4 °F - -5.8 °F 78% 29.65 in 8.0 mi Calm Calm - N/A   Overcast
8:55 AM -2.0 °F -10.1 °F -6.3 °F 82% 29.67 in 4.0 mi SE 3.5 mph - 0.00 in Snow Light Snow
9:47 AM -2.2 °F -12.5 °F -7.6 °F 78% 29.68 in 7.0 mi SSE 4.6 mph - N/A Snow Light Snow
9:55 AM -2.7 °F -11.0 °F -7.1 °F 82% 29.68 in 5.0 mi Variable 3.5 mph - 0.00 in Snow Light Snow
10:35 AM -0.4 °F -8.3 °F -4.0 °F 85% 29.62 in 2.0 mi SSE 3.5 mph - N/A Snow Light Snow
10:55 AM 0.1 °F -7.7 °F -4.2 °F 82% 29.69 in 2.0 mi SSE 3.5 mph - 0.00 in Snow Light Snow
11:55 AM 1.8 °F - -2.6 °F 82% 29.71 in 2.5 mi Calm Calm - 0.00 in Snow Light Snow
12:22 PM 1.4 °F - -2.2 °F 85% 29.71 in 4.0 mi Calm Calm - N/A Snow Light Snow
12:55 PM 2.3 °F - -1.8 °F 83% 29.72 in 7.0 mi Calm Calm - 0.00 in Snow Light Snow
1:45 PM 3.2 °F - -0.4 °F 85% 29.73 in 2.0 mi Calm Calm - N/A Snow Light Snow
1:55 PM 3.2 °F - -0.8 °F 84% 29.73 in 2.0 mi Calm Calm - 0.00 in Snow Light Snow
2:55 PM 3.4 °F - -0.8 °F 83% 29.73 in 2.0 mi Calm Calm - 0.00 in Snow Light Snow
3:02 PM 3.2 °F - -0.4 °F 85% 29.73 in 2.0 mi Calm Calm - N/A Snow Light Snow
3:55 PM 3.4 °F - -0.6 °F 84% 29.74 in 3.0 mi Calm Calm - 0.00 in Snow Light Snow
4:55 PM 3.0 °F - -1.1 °F 83% 29.75 in 2.0 mi Calm Calm - 0.00 in Snow Light Snow
5:55 PM 2.8 °F - -1.1 °F 84% 29.77 in 2.5 mi Calm Calm - 0.00 in Snow Light Snow
6:55 PM 2.3 °F -7.2 °F -1.7 °F 84% 29.78 in 2.5 mi West 4.6 mph - 0.00 in Snow Light Snow
7:02 PM 1.4 °F -6.2 °F -2.2 °F 85% 29.78 in 9.0 mi WSW 3.5 mph - N/A Snow Light Snow
7:55 PM 1.6 °F - -2.7 °F 82% 29.78 in 3.0 mi Calm Calm - 0.00 in Snow Light Snow
8:55 PM 1.2 °F - -3.1 °F 82% 29.77 in 3.0 mi Calm Calm - 0.00 in Snow Light Snow
9:55 PM 1.0 °F - -3.5 °F 81% 29.76 in 3.0 mi Calm Calm - 0.00 in Snow Light Snow
10:55 PM 0.5 °F - -4.0 °F 81% 29.76 in 8.0 mi Calm Calm - 0.00 in Snow Light Snow
11:55 PM 0.1 °F - -4.4 °F 81% 29.75 in 10.0 mi Calm Calm - 0.00 in   Overcast